Location: Altamira
(10.5079°N, 66.8544°W)
Time: 08:50:12
(UTC+00:00)

Cosmos 2297 Rocket - Pass Details

Date: 08 December 2021
Orbit: 838 x 845 km, 71.0° (Epoch: 24 January)

Event Time Altitude Azimuth Distance (km) Brightness Sun altitude
Rises 23:43:19 0° 174° (S) 3,378 5.5 -23.2°
Reaches altitude 10° 23:46:02 10° 164° (SSE) 2,444 4.6 -23.8°
Enters shadow 23:48:43 23° 141° (SE) 1,701 3.6 -24.5°
